N2IC Weather Reports


Display with metric or nautical units.
time (UTC)temp
F
wind
direction
speed
MPH
gust
MPH
rain 1hr
in
rain 24hr
in
rain mn
in
humidity
%
barometer
mb
20260505125001 43 292 17.0 23.0 0.00 0.00 0.00 89
20260505124002 43 270 21.0 22.0 0.00 0.00 0.00 88
20260505123001 44 270 20.0 24.0 0.00 0.00 0.00 86
20260505122002 46 270 28.0 30.0 0.00 0.00 0.00 77
20260505121001 47 248 14.0 25.0 0.00 0.00 0.00 74
20260505120002 47 270 14.0 25.0 0.00 0.00 0.00 75
20260505115002 47 270 12.0 22.0 0.00 0.00 0.00 75
20260505114425 48 270 19.0 29.0 0.00 0.00 0.00 73
20260505113002 48 270 10.0 20.0 0.00 0.00 0.00 73
20260505112427 48 270 14.0 17.0 0.00 0.00 0.00 75
20260505111002 48 270 17.0 20.0 0.00 0.00 0.00 76
20260505040002 53 315 11.0 16.0 0.00 0.00 0.00 57
20260505035001 54 315 16.0 24.0 0.00 0.00 0.00 57
20260505034002 54 270 12.0 20.0 0.00 0.00 0.00 53
20260505033426 55 292 15.0 21.0 0.00 0.00 0.00 49
20260505032002 55 292 11.0 19.0 0.00 0.00 0.00 47
20260505031001 56 338 11.0 16.0 0.00 0.00 0.00 45
20260505030002 56 270 9.0 18.0 0.00 0.00 0.00 43
20260505025426 57 315 11.0 18.0 0.00 0.00 0.00 41
20260505024002 57 292 9.0 20.0 0.00 0.00 0.00 41
20260505023002 57 292 14.0 23.0 0.00 0.00 0.00 40
20260505022001 58 338 16.0 22.0 0.00 0.00 0.00 39
20260505021002 58 270 14.0 24.0 0.00 0.00 0.00 38
20260505020002 58 270 14.0 24.0 0.00 0.00 0.00 38
20260505015426 59 270 21.0 28.0 0.00 0.00 0.00 37
20260505014002 60 292 20.0 28.0 0.00 0.00 0.00 37
20260505013002 61 270 9.0 22.0 0.00 0.00 0.00 33
20260505012002 62 270 12.0 24.0 0.00 0.00 0.00 32
20260505011002 62 270 21.0 21.0 0.00 0.00 0.00 30
20260505010001 63 270 19.0 23.0 0.00 0.00 0.00 28
20260505005002 64 270 11.0 19.0 0.00 0.00 0.00 28
20260505004002 64 202 7.0 19.0 0.00 0.00 0.00 27
20260505003001 64 248 18.0 21.0 0.00 0.00 0.00 27
20260505002002 64 248 18.0 23.0 0.00 0.00 0.00 26
20260505001001 65 225 18.0 23.0 0.00 0.00 0.00 26
20260505000002 65 202 9.0 17.0 0.00 0.00 0.00 26
20260504235002 65 270 24.0 24.0 0.00 0.00 0.00 26
20260504234001 65 270 17.0 24.0 0.00 0.00 0.00 26
20260504233002 66 248 20.0 22.0 0.00 0.00 0.00 26
20260504232002 66 225 26.0 28.0 0.00 0.00 0.00 26
20260504231002 66 270 15.0 26.0 0.00 0.00 0.00 26
20260504230427 67 248 14.0 22.0 0.00 0.00 0.00 26
20260504225001 68 225 18.0 21.0 0.00 0.00 0.00 25
20260504224002 68 270 25.0 28.0 0.00 0.00 0.00 25
20260504223002 68 270 14.0 23.0 0.00 0.00 0.00 25
20260504222002 68 270 12.0 14.0 0.00 0.00 0.00 27
20260504221002 67 270 17.0 24.0 0.00 0.00 0.00 27
20260504220428 66 248 17.0 27.0 0.00 0.00 0.00 27
20260504215002 66 248 19.0 24.0 0.00 0.00 0.00 27
20260504214424 69 225 14.0 23.0 0.00 0.00 0.00 26
20260504213002 68 225 25.0 25.0 0.00 0.00 0.00 25
20260504212002 67 270 17.0 21.0 0.00 0.00 0.00 25
20260504211002 69 225 17.0 20.0 0.00 0.00 0.00 24
20260504210428 70 270 16.0 20.0 0.00 0.00 0.00 25
20260504205429 68 248 24.0 24.0 0.00 0.00 0.00 25
20260504204425 68 248 26.0 26.0 0.00 0.00 0.00 25
20260504203001 67 225 14.0 23.0 0.00 0.00 0.00 25
20260504202001 68 225 22.0 25.0 0.00 0.00 0.00 26
20260504201428 67 225 11.0 24.0 0.00 0.00 0.00 26
20260504200001 67 270 9.0 22.0 0.00 0.00 0.00 25
20260504195002 67 225 6.0 21.0 0.00 0.00 0.00 26
20260504194001 67 270 8.0 22.0 0.00 0.00 0.00 25
20260504193002 66 270 16.0 24.0 0.00 0.00 0.00 26
20260504192427 68 180 11.0 19.0 0.00 0.00 0.00 26
20260504191002 68 270 14.0 18.0 0.00 0.00 0.00 24
20260504190002 68 270 14.0 21.0 0.00 0.00 0.00 26
20260504185002 65 248 19.0 23.0 0.00 0.00 0.00 26
20260504184002 65 225 20.0 25.0 0.00 0.00 0.00 26
20260504183002 65 225 8.0 22.0 0.00 0.00 0.00 27
20260504182002 65 248 18.0 19.0 0.00 0.00 0.00 28
20260504181003 65 248 14.0 17.0 0.00 0.00 0.00 29
20260504180002 64 202 14.0 20.0 0.00 0.00 0.00 31
20260504175002 64 225 16.0 18.0 0.00 0.00 0.00 32
20260504174002 64 248 13.0 17.0 0.00 0.00 0.00 33
20260504173002 63 202 14.0 19.0 0.00 0.00 0.00 35
20260504172002 62 270 12.0 19.0 0.00 0.00 0.00 34
20260504171424 62 248 6.0 19.0 0.00 0.00 0.00 37
20260504160426 59 270 15.0 17.0 0.00 0.00 0.00 40
20260504151001 57 248 7.0 12.0 0.00 0.00 0.00 44
20260504141002 56 270 8.0 10.0 0.00 0.00 0.00 45